Temperature
4 5 5 5 5 5 5 6 6 6 6 7 7 7 7 7 7 8 7 8 8 8 8 8 9 9 9 9 9 9 9 10 10 9 9 9 9 9 8 8 8 7 7
4 4 5 5 5 5 5 6 6 6 6 6 7 7 7 7 7 7 7 8 8 8 8 8 8 9 9 9 9 9 9 9 9 9 9 9 9 8 8 8 7 7 7
4 4 4 4 4 5 5 5 6 6 6 6 7 7 7 7 7 7 7 8 8 8 8 8 9 9 9 9 9 9 9 9 9 9 9 9 8 8 8 8 7 7 6
3 4 4 4 4 4 4 5 5 6 6 6 6 7 7 7 7 7 7 8 8 8 8 8 9 9 9 9 9 9 9 8 8 8 8 8 8 8 7 7 7 7 6
3 3 3 4 4 4 4 5 5 6 6 6 6 6 6 7 7 7 7 8 8 8 8 8 9 9 9 9 9 9 8 8 8 8 8 8 7 7 7 7 7 6 6
2 3 3 3 4 4 4 5 5 5 6 6 6 6 6 6 7 7 7 7 8 8 8 8 9 9 9 9 9 9 9 8 8 8 8 8 8 8 7 7 6 6 5
2 3 3 3 3 4 4 4 5 5 5 6 6 6 6 6 7 7 7 7 8 8 8 8 8 8 8 8 8 8 8 8 8 8 8 8 8 8 7 6 6 6 5
2 2 2 3 3 3 4 4 4 5 5 5 6 6 6 6 7 7 7 7 8 8 8 8 8 8 8 8 8 8 8 8 8 8 8 8 8 7 7 6 6 5 4
2 2 2 2 3 3 3 4 4 4 5 5 5 5 6 6 7 7 7 7 7 8 8 8 8 8 8 8 8 8 8 7 7 7 7 7 7 6 6 6 5 5 4
2 2 2 2 2 3 3 4 4 4 4 5 5 5 5 6 6 6 7 7 7 7 7 8 8 8 8 8 7 7 7 7 7 7 7 6 6 6 5 5 5 4 4
2 2 2 2 2 2 3 3 4 4 4 4 5 5 5 5 6 6 7 7 7 7 7 7 7 7 7 7 7 7 7 7 7 7 6 6 5 5 5 5 4 4 4
1 2 2 2 2 2 3 3 3 3 4 4 4 5 5 5 5 6 6 7 7 7 7 7 7 7 7 7 7 7 7 7 7 6 6 5 5 5 5 4 4 3 3
1 1 1 2 2 2 2 3 3 3 3 3 4 4 4 5 5 5 6 6 7 7 7 7 7 7 7 7 7 7 6 6 6 6 5 5 5 4 4 4 3 3 2
1 1 1 1 1 2 2 2 2 2 3 3 3 3 4 4 4 5 6 6 6 7 7 7 7 7 6 6 6 6 6 6 6 6 5 5 4 4 4 3 3 3 2
0 0 1 1 1 1 1 2 2 2 2 2 2 3 3 3 4 5 5 6 6 6 6 6 6 6 6 6 6 5 5 5 5 5 5 4 4 4 3 3 3 2 2
-0 -0 0 0 1 1 1 1 2 2 2 2 2 3 3 4 4 5 5 5 5 6 6 6 6 6 6 5 5 5 5 5 5 5 4 4 4 4 3 3 2 2 1
-1 -1 -0 -0 0 0 0 0 1 2 2 2 2 3 3 4 4 4 5 5 5 5 5 5 5 5 5 5 5 5 4 4 4 4 4 4 3 3 3 2 2 1 1
-1 -1 -1 -1 -0 -0 -0 0 0 0 1 2 2 2 3 3 4 4 4 5 5 5 5 5 5 5 5 5 5 4 4 4 4 4 4 3 3 3 2 2 1 1 1
-1 -1 -1 -1 -1 -1 -0 -0 -0 0 0 1 1 2 2 3 3 4 4 4 4 5 5 5 5 5 5 5 5 4 4 4 4 3 3 3 3 2 2 2 1 1 0
-1 -1 -1 -1 -1 -1 -1 -0 -0 -0 0 1 1 1 2 2 3 3 4 4 4 4 4 4 4 5 5 5 4 4 4 4 3 3 3 3 2 2 2 1 1 0 -0
-2 -1 -1 -1 -1 -1 -1 -1 -1 -0 -0 0 1 1 1 2 2 3 3 3 4 4 4 4 4 4 4 4 4 4 4 4 3 3 3 2 2 2 1 1 0 -0 -1
-2 -2 -2 -2 -2 -2 -1 -1 -1 -1 -0 0 0 1 1 1 2 2 3 3 3 3 4 4 4 4 4 4 4 4 3 3 3 3 3 2 2 2 1 1 -0 -0 -1
-2 -2 -2 -2 -2 -2 -2 -1 -1 -1 -0 0 0 1 1 1 2 2 2 2 3 3 3 3 4 4 4 3 3 4 4 3 3 3 3 2 2 1 1 0 -0 -1 -1
-3 -3 -2 -2 -2 -2 -2 -1 -1 -0 -0 -0 0 0 1 1 1 2 2 2 2 3 3 3 3 3 3 3 3 3 3 3 3 3 3 2 2 1 1 -0 -1 -1 -2
-3 -3 -2 -2 -2 -2 -2 -1 -1 -1 -0 -0 0 0 1 1 1 1 2 2 2 3 3 3 3 3 3 3 3 3 3 3 2 2 2 2 1 1 0 -0 -1 -2 -2
-3 -3 -3 -3 -2 -2 -2 -1 -1 -1 -1 -0 -0 0 0 1 1 1 1 2 2 2 2 2 3 3 3 2 3 3 2 2 2 2 2 1 1 0 -0 -1 -1 -2 -2
Wind_Speed
10 9 7 7 7 8 9 9 9 9 10 10 11 11 12 12 14 13 13 14 15 14 13 13 11 9 9 8 7 6 5 4 5 3 2 3 4 5 5 6 7 6 5
10 9 7 6 6 7 8 8 8 9 10 11 11 12 12 12 13 14 14 15 16 15 15 14 13 10 11 9 8 7 6 5 5 6 4 4 4 5 5 5 5 5 4
9 9 7 7 6 7 8 8 8 8 9 10 11 12 12 12 13 14 15 15 16 15 16 15 14 13 12 10 9 8 6 5 5 6 5 3 3 4 4 3 4 3 3
9 9 8 8 7 7 8 8 7 6 6 8 9 10 11 12 12 13 13 13 14 14 14 14 14 15 14 13 11 10 8 6 6 7 6 4 4 4 4 4 3 2 1
9 8 8 8 7 7 7 6 5 5 5 6 8 8 9 10 11 11 12 12 13 13 13 12 13 15 16 14 11 11 11 8 7 7 6 5 5 5 5 4 4 3 1
9 8 8 9 8 7 5 5 5 4 3 4 6 7 7 7 10 12 12 11 12 13 13 12 12 14 16 16 16 15 14 12 10 8 6 7 7 6 5 5 5 3 2
9 8 8 9 9 6 5 5 5 4 3 3 3 5 6 6 9 11 12 11 11 13 13 12 11 11 14 12 13 14 12 13 13 10 9 9 9 9 9 7 5 4 3
8 8 8 9 8 7 6 5 5 3 2 1 2 3 4 6 7 10 11 10 10 11 12 13 13 13 13 14 12 10 8 7 9 8 9 9 8 9 9 8 7 5 4
9 8 8 8 7 7 7 6 4 2 2 1 1 2 3 4 6 7 10 9 9 9 10 12 14 14 17 19 14 12 9 6 6 9 9 10 13 14 13 9 7 5 2
9 8 8 7 6 7 7 6 3 2 2 1 1 1 2 3 4 6 7 8 9 8 8 10 15 16 19 20 15 14 12 9 9 9 9 11 10 12 12 8 8 6 3
9 8 7 6 6 6 6 5 3 2 2 1 1 1 2 3 4 5 6 7 9 9 8 9 10 18 19 19 16 12 14 13 11 10 8 8 7 6 5 5 4 5 4
8 7 7 5 5 5 5 5 4 1 1 1 1 1 1 1 3 4 5 7 9 9 8 8 10 18 19 19 14 15 20 16 10 9 8 7 6 5 5 6 7 7 6
7 7 6 5 5 5 4 5 4 2 1 1 1 1 2 1 1 3 5 7 9 8 8 12 15 18 17 15 17 20 17 11 10 9 8 6 6 6 7 6 8 9 9
7 7 6 5 6 5 4 4 4 3 2 2 2 2 2 1 1 2 3 5 8 8 9 13 16 16 13 13 15 13 9 9 10 9 8 7 7 7 6 5 5 5 4
6 7 5 5 5 5 5 4 5 4 3 3 3 3 3 3 3 3 3 4 5 8 9 8 8 9 9 9 9 9 8 8 8 8 9 9 8 7 6 5 4 4 3
6 6 4 4 4 4 5 6 7 6 6 6 6 5 3 3 4 3 3 5 8 13 11 9 10 10 11 11 10 9 8 8 8 9 9 9 9 8 7 5 4 4 4
5 5 4 4 4 4 4 4 6 6 5 4 3 4 3 3 3 4 5 6 9 12 8 9 9 10 10 10 10 9 8 8 8 9 9 9 8 8 7 7 6 5 4
5 6 5 4 4 4 4 4 3 4 4 3 3 2 1 2 3 5 7 7 6 7 7 8 9 10 10 10 10 9 9 9 9 9 9 9 9 8 8 7 6 6 5
4 4 4 3 3 4 4 4 3 3 3 2 2 2 1 1 2 5 7 6 6 6 6 7 8 9 9 10 10 10 10 10 10 9 9 9 9 8 8 7 6 8 6
4 6 5 3 3 3 3 3 3 3 2 2 2 1 1 1 1 2 3 5 5 6 6 7 7 9 9 9 10 10 10 10 10 8 9 8 8 8 8 9 7 7 5
4 4 5 4 3 3 3 3 3 3 2 2 2 2 2 1 2 3 3 4 5 6 7 7 8 9 9 9 9 11 11 10 9 9 9 8 8 8 7 7 7 6 6
3 3 3 3 3 3 4 3 3 3 3 3 2 1 2 1 2 2 3 3 4 5 6 7 7 7 8 9 10 11 11 10 10 9 9 9 8 8 8 8 7 7 7
3 3 3 3 3 4 4 3 3 3 3 2 2 1 1 1 1 2 3 3 4 5 5 7 7 7 7 8 9 10 11 11 10 11 11 10 9 9 9 9 9 9 7
3 3 4 4 4 3 3 3 2 2 2 2 2 2 2 2 2 2 3 3 4 5 5 6 7 9 11 9 8 8 9 11 12 12 13 12 11 9 9 9 8 9 8
4 4 4 4 4 3 3 2 2 2 2 2 2 2 2 2 3 3 3 4 5 5 6 7 7 9 12 12 11 11 15 17 16 14 12 11 11 10 10 10 9 9 8
4 4 3 3 3 3 3 2 2 2 2 2 2 2 3 3 3 3 3 4 5 5 6 6 8 10 12 11 14 17 20 20 19 19 14 11 11 10 10 9 10 9 9
Wind_Direction
308 300 285 274 269 263 257 255 246 234 224 217 219 211 209 211 204 199 206 200 198 199 193 189 190 180 176 173 173 173 171 158 172 165 137 142 154 160 155 158 165 166 177
309 306 292 279 277 275 273 268 254 240 225 218 216 210 209 211 204 202 204 200 196 197 194 187 187 183 177 175 176 177 178 168 166 169 156 157 153 161 154 150 147 152 160
313 310 303 293 283 280 280 282 268 248 228 214 210 208 207 208 204 204 203 199 196 195 191 187 184 180 182 179 177 177 174 168 162 162 161 147 136 143 142 137 128 127 138
315 311 307 302 286 282 284 281 273 254 233 215 213 210 208 207 203 203 199 197 195 193 190 187 184 184 184 179 179 177 170 163 158 154 152 146 142 139 142 148 147 144 143
316 311 308 308 295 289 289 283 276 253 244 225 211 211 208 206 200 198 196 193 193 189 187 187 186 180 180 179 178 174 170 169 164 161 160 151 157 159 172 160 161 143 135
313 311 315 317 313 300 291 293 294 274 254 238 212 206 207 210 201 199 195 190 190 187 185 184 179 171 171 173 171 171 172 172 175 174 175 176 180 173 155 153 146 147 195
311 314 317 317 315 306 298 302 299 291 273 243 215 206 206 203 200 195 191 191 190 188 183 179 176 174 169 168 165 166 169 170 172 175 176 182 177 175 162 159 163 157 163
310 313 315 317 316 317 305 298 300 277 268 251 237 214 204 203 198 188 178 183 187 188 184 178 172 170 171 165 162 162 164 170 171 168 173 175 168 163 164 159 148 117 90
307 307 310 312 311 314 312 300 298 300 295 269 254 217 200 199 189 186 176 176 179 181 181 175 170 170 167 160 160 159 151 142 125 129 133 134 136 140 139 128 131 129 129
303 299 300 301 303 306 308 309 303 303 293 301 279 233 205 202 196 188 184 176 176 176 175 172 170 168 167 163 165 163 160 155 137 118 110 110 117 130 136 142 151 146 135
300 299 299 297 301 305 309 312 311 307 310 305 289 271 222 212 199 192 190 179 175 172 174 174 172 164 163 165 165 166 161 150 143 133 124 117 112 114 111 107 120 143 145
305 305 305 307 311 316 318 322 324 305 302 300 306 325 274 212 207 194 190 180 172 174 174 170 165 160 158 159 162 153 144 139 138 136 135 134 132 126 114 101 93 83 85
307 307 308 310 312 315 318 321 324 313 271 283 285 291 294 268 219 193 173 170 166 169 165 157 154 154 153 156 153 148 145 144 146 147 149 146 138 134 124 108 93 88 77
305 308 313 317 319 320 319 314 310 303 287 272 273 271 283 270 207 165 162 154 153 152 147 145 145 145 147 148 148 147 148 153 154 152 145 135 131 133 132 126 121 113 92
305 305 310 313 313 316 317 309 305 292 269 264 255 236 237 246 220 192 179 171 168 158 146 142 145 151 153 149 146 146 144 145 143 140 141 141 140 136 134 130 128 123 112
303 305 307 313 314 317 324 329 325 308 309 294 278 272 266 230 210 194 184 166 159 153 148 154 158 159 160 158 155 151 151 153 150 146 146 146 147 147 143 139 133 128 128
291 296 302 306 308 312 317 323 327 339 333 307 290 288 258 207 190 177 162 158 153 152 154 160 163 163 159 158 157 156 157 154 150 149 148 149 148 147 147 147 142 132 130
292 294 298 296 299 302 301 300 302 310 319 332 337 323 291 207 182 169 157 146 151 152 157 160 161 158 156 156 157 154 150 150 149 149 150 150 151 151 151 152 152 147 142
292 295 294 295 295 295 297 297 297 294 290 302 332 353 11 111 162 171 161 160 160 160 157 155 154 153 153 154 155 154 153 154 153 152 152 151 152 151 151 151 149 146 139
287 291 297 294 295 298 298 297 297 291 286 281 283 287 5 67 124 153 158 159 159 158 156 154 152 150 152 153 153 152 151 151 152 152 151 151 151 152 150 149 149 150 147
286 289 295 294 290 289 290 288 285 280 272 267 267 260 256 214 174 162 163 159 157 155 154 152 151 151 151 151 152 151 150 151 153 152 150 148 148 147 145 144 145 141 137
281 283 284 282 282 283 284 277 270 266 260 255 259 259 241 199 168 157 152 147 146 151 153 152 153 155 157 158 155 154 153 153 154 151 147 146 146 143 141 140 140 140 138
284 285 288 286 283 282 283 273 257 248 251 241 212 200 191 180 173 156 145 143 140 141 144 145 148 150 148 147 152 157 158 160 159 155 150 147 146 144 144 145 146 145 145
284 280 280 283 282 275 272 271 251 234 225 212 193 185 180 165 152 143 136 133 135 136 139 143 147 148 146 144 143 145 145 145 145 148 148 147 144 143 142 142 143 144 145
282 278 277 276 278 277 277 271 242 220 215 192 174 168 156 148 141 135 130 130 132 136 137 139 141 144 146 146 145 144 142 141 141 141 141 140 140 141 141 139 140 141 142
284 283 280 275 273 270 263 251 229 210 197 182 168 164 157 148 142 138 134 131 129 133 135 135 138 140 141 143 143 143 143 143 141 140 137 137 139 141 140 138 139 142 141
Height
1364 1361 1358 1357 1357 1356 1355 1354 1354 1355 1357 1359 1362 1365 1368 1372 1376 1381 1386 1391 1396 1402 1408 1413 1419 1425 1430 1435 1440 1444 1448 1451 1454 1458 1462 1466 1470 1473 1475 1478 1479 1481 1481
1360 1357 1355 1353 1352 1350 1349 1348 1349 1349 1350 1353 1356 1359 1362 1366 1369 1375 1379 1384 1389 1395 1400 1406 1412 1419 1424 1430 1435 1439 1443 1447 1451 1453 1457 1461 1465 1468 1470 1473 1475 1476 1477
1357 1353 1351 1349 1347 1345 1344 1342 1343 1343 1344 1346 1350 1352 1355 1359 1363 1368 1373 1377 1382 1388 1394 1400 1406 1413 1418 1424 1429 1433 1438 1443 1447 1450 1453 1457 1460 1463 1466 1468 1470 1471 1472
1355 1351 1348 1346 1343 1341 1340 1338 1337 1337 1338 1340 1344 1347 1350 1353 1357 1362 1367 1372 1377 1382 1388 1394 1400 1406 1412 1418 1423 1428 1433 1437 1442 1445 1448 1452 1455 1458 1461 1462 1465 1467 1468
1353 1349 1345 1342 1340 1338 1336 1335 1334 1334 1335 1336 1339 1342 1345 1348 1352 1356 1361 1366 1371 1377 1383 1389 1394 1401 1408 1413 1418 1423 1427 1432 1436 1440 1443 1447 1450 1452 1455 1457 1460 1462 1463
1351 1347 1343 1340 1337 1335 1333 1332 1330 1330 1331 1332 1334 1337 1340 1342 1347 1352 1356 1361 1366 1372 1377 1383 1389 1396 1402 1408 1413 1418 1423 1426 1431 1434 1438 1441 1444 1447 1450 1453 1455 1456 1458
1347 1344 1341 1338 1335 1332 1330 1329 1328 1327 1327 1328 1330 1333 1335 1339 1343 1347 1352 1357 1362 1367 1372 1377 1384 1390 1396 1402 1408 1414 1418 1422 1427 1430 1433 1436 1440 1442 1445 1448 1450 1452 1454
1344 1341 1339 1336 1333 1330 1328 1326 1325 1325 1325 1325 1327 1330 1332 1336 1339 1342 1347 1353 1358 1363 1367 1372 1378 1384 1391 1397 1403 1408 1413 1418 1422 1426 1429 1433 1436 1439 1442 1444 1447 1449 1451
1342 1339 1336 1333 1331 1328 1326 1325 1324 1323 1323 1323 1325 1327 1329 1332 1335 1338 1343 1348 1353 1358 1363 1369 1374 1380 1386 1393 1398 1403 1408 1413 1418 1422 1426 1429 1432 1435 1438 1440 1442 1445 1446
1339 1337 1334 1331 1329 1327 1325 1323 1323 1322 1322 1322 1323 1325 1327 1330 1332 1335 1339 1343 1348 1353 1359 1364 1370 1376 1382 1388 1393 1398 1403 1408 1413 1418 1422 1425 1428 1431 1434 1437 1439 1441 1443
1337 1334 1331 1329 1327 1325 1323 1322 1321 1321 1320 1320 1321 1323 1325 1327 1329 1332 1335 1339 1343 1348 1354 1359 1365 1371 1378 1384 1390 1395 1399 1405 1410 1414 1418 1422 1425 1428 1431 1434 1437 1439 1440
1334 1331 1329 1327 1325 1323 1321 1320 1320 1319 1319 1319 1319 1320 1322 1324 1327 1329 1332 1336 1341 1346 1351 1356 1362 1368 1374 1381 1386 1392 1397 1402 1406 1410 1414 1418 1421 1425 1428 1431 1433 1435 1437
1331 1328 1326 1324 1323 1321 1320 1319 1318 1318 1317 1317 1317 1318 1320 1322 1323 1326 1329 1334 1338 1343 1348 1354 1359 1365 1371 1377 1383 1389 1394 1398 1402 1406 1410 1414 1418 1422 1425 1428 1430 1432 1434
1328 1325 1323 1321 1320 1319 1318 1318 1317 1316 1315 1315 1316 1316 1317 1318 1320 1322 1326 1331 1336 1341 1346 1351 1357 1363 1369 1374 1380 1385 1390 1395 1398 1403 1407 1412 1415 1419 1422 1425 1427 1429 1431
1325 1323 1321 1320 1318 1317 1316 1316 1315 1315 1315 1315 1315 1315 1315 1315 1318 1321 1324 1328 1333 1337 1342 1348 1353 1359 1365 1370 1376 1381 1386 1391 1396 1400 1404 1408 1412 1416 1419 1422 1424 1426 1428
1322 1321 1319 1317 1316 1315 1314 1313 1313 1313 1313 1314 1314 1314 1313 1315 1316 1320 1323 1327 1331 1335 1340 1344 1350 1355 1361 1366 1371 1377 1382 1387 1392 1397 1401 1405 1408 1412 1415 1418 1421 1423 1425
1320 1318 1317 1316 1314 1313 1312 1311 1310 1311 1311 1312 1312 1312 1312 1313 1315 1318 1322 1325 1330 1334 1337 1342 1347 1352 1357 1363 1368 1373 1379 1384 1389 1393 1398 1402 1406 1409 1412 1415 1418 1420 1422
1317 1316 1314 1313 1312 1311 1311 1311 1310 1309 1308 1308 1309 1310 1311 1313 1315 1317 1321 1324 1327 1332 1335 1340 1344 1349 1354 1360 1365 1371 1376 1381 1386 1390 1395 1399 1403 1406 1409 1412 1415 1417 1419
1314 1313 1312 1311 1310 1310 1309 1309 1309 1308 1307 1306 1307 1308 1310 1311 1313 1316 1319 1322 1325 1329 1334 1338 1342 1347 1352 1358 1363 1368 1373 1378 1383 1387 1392 1396 1400 1403 1406 1409 1412 1415 1417
1311 1310 1310 1309 1308 1307 1307 1306 1306 1306 1305 1306 1306 1307 1308 1309 1311 1314 1317 1320 1324 1328 1332 1336 1341 1345 1350 1355 1360 1366 1371 1375 1380 1385 1389 1393 1397 1401 1404 1407 1410 1413 1415
1308 1307 1307 1306 1305 1305 1304 1304 1304 1304 1304 1305 1305 1306 1308 1309 1310 1313 1316 1320 1323 1327 1331 1335 1339 1344 1349 1354 1358 1363 1368 1373 1377 1382 1386 1391 1395 1398 1402 1405 1409 1411 1413
1305 1304 1304 1303 1303 1302 1302 1302 1302 1302 1303 1303 1304 1306 1307 1308 1310 1312 1315 1319 1322 1326 1330 1334 1338 1343 1348 1352 1357 1361 1366 1370 1375 1380 1384 1389 1393 1396 1400 1403 1407 1409 1411
1302 1301 1300 1300 1299 1299 1299 1299 1300 1300 1301 1302 1303 1304 1306 1308 1309 1312 1315 1318 1322 1326 1330 1333 1337 1342 1346 1351 1356 1360 1364 1368 1373 1378 1382 1386 1390 1394 1398 1401 1404 1407 1409
1299 1298 1297 1297 1296 1296 1296 1296 1297 1298 1299 1301 1302 1304 1306 1307 1309 1311 1315 1318 1322 1325 1329 1333 1337 1341 1345 1350 1354 1359 1363 1368 1372 1377 1381 1384 1388 1392 1396 1400 1403 1405 1408
1297 1296 1295 1294 1294 1293 1293 1294 1295 1296 1298 1299 1301 1303 1305 1307 1309 1311 1315 1318 1321 1325 1328 1332 1336 1341 1345 1349 1353 1357 1362 1367 1371 1375 1379 1384 1387 1391 1395 1398 1401 1404 1407
1294 1293 1292 1292 1291 1291 1291 1292 1293 1294 1296 1298 1300 1302 1304 1306 1309 1311 1315 1318 1321 1324 1328 1332 1336 1340 1344 1348 1352 1357 1361 1366 1370 1374 1378 1382 1386 1390 1394 1397 1400 1403 1406